Content
SEND FEEDBACK

Daily
Averages
Monthly
Summary
Israel

KEFAR MONASH, ISRAEL


Home > Middle East > Israel
Elevation: 108 feet     Latitude: 32 18N     Longitude: 034 54E

WEATHER
 
SELECT A DAY
Number of Records: 151,980;   Date Range: 7/1/96 - 9/15/14
 
SHARE

PRINT THIS DATA

[ ← Previous Day ]
WEATHER ALMANAC - JANUARY 31, 2013
[ Next Day → ]
[ °C ]   °F
Weather ElementAverageHighLow
Temperature50.2 °F55.4 °F (2:50 pm)44.6 °F (8:50 am)
Dewpoint46.8 °F50 °F (2:20 pm)42.8 °F (8:50 am)
Humidity87.8 %95 % (8:00 am)78 % (2:00 pm)
Barometer29.76 in29.86 in (10:20 pm)29.68 in (2:00 pm)
Wind Speed11 mph19.6 mph (9:20 am)
Weather ElementAverage
Visibility5.1 mi
Wind DirectionS (176.5 °)

Weather ElementTotal
Precipitation---
Heating Degree Days15 (Base 65)
Averaged from 49 records on January 31, 2013
WEATHER CONDITIONS BREAKOUT
WIND DIRECTION BREAKOUT
WEATHER BY HOUR - JANUARY 31, 2013
[ °C ]   °F
Local TimeTemperatureDewpointHumidityBarometerVisibilityWind DirectionWind SpeedGust SpeedPrecipitationEventsConditions
1:50 AM48.2 °F46.4 °F93 %29.77 in3.1 miSSE (160°)6.9 mphRainRain Showers
2:00 AM49.0 °F46.0 °F86 %29.75 in4.0 miSSE (160°)11.5 mphRainRain
2:20 AM48.2 °F46.4 °F93 %29.74 in3.1 miSE (140°)10.4 mphRainRain Showers
2:50 AM50.0 °F46.4 °F87 %29.74 in6.2 miSE (130°)4.6 mphRainLight Rain
3:20 AM50.0 °F48.2 °F94 %29.74 in3.7 miSouth (170°)9.2 mphRainHeavy Rain
3:50 AM50.0 °F46.4 °F87 %29.71 in6.2 miSSE (150°)9.2 mphRainHeavy Rain
4:20 AM50.0 °F46.4 °F87 %29.71 in6.2 miSSE (160°)11.5 mphRainRain
4:50 AM50.0 °F46.4 °F87 %29.71 in6.2 miSouth (180°)12.7 mphRainHeavy Rain
5:20 AM48.2 °F46.4 °F93 %29.71 in6.2 miSouth (190°)17.3 mphRainLight Rain
5:50 AM48.2 °F46.4 °F93 %29.71 in6.2 miSouth (190°)11.5 mphRainRain Showers
6:20 AM48.2 °F46.4 °F93 %29.71 in4.3 miSouth (170°)12.7 mphRainRain Showers
6:50 AM48.2 °F46.4 °F93 %29.74 in3.1 miSouth (190°)13.8 mphRainRain Showers
7:20 AM46.4 °F44.6 °F93 %29.74 in3.1 miSSE (160°)18.4 mphRainRain Showers
7:50 AM46.4 °F44.6 °F93 %29.74 in4.3 miSouth (180°)17.3 mphRainLight Rain
8:00 AM46.0 °F45.0 °F95 %29.75 in4.0 miSouth (180°)17.3 mphOvercast
8:20 AM46.4 °F44.6 °F93 %29.74 in5.0 miSSE (160°)16.1 mphRainLight Rain
8:50 AM44.6 °F42.8 °F93 %29.74 in5.0 miSouth (170°)18.4 mphRainLight Rain
9:20 AM46.4 °F42.8 °F87 %29.74 in4.3 miSSE (150°)19.6 mphOvercast
9:50 AM48.2 °F44.6 °F87 %29.74 in5.0 miSSE (150°)12.7 mphOvercast
10:20 AM48.2 °F44.6 °F87 %29.74 in3.7 miSSE (160°)11.5 mphOvercast
10:50 AM51.8 °F48.2 °F88 %29.74 in5.6 miSouth (180°)10.4 mphScattered Clouds
11:20 AM51.8 °F48.2 °F88 %29.71 in5.0 miSouth (180°)12.7 mphOvercast
11:50 AM50.0 °F46.4 °F87 %29.74 in3.7 miWSW (250°)11.5 mphRainRain Showers
12:20 PM50.0 °F46.4 °F87 %29.74 in3.1 miSSW (200°)9.2 mphRainLight Rain
12:50 PM48.2 °F44.6 °F87 %29.74 in3.1 miSSW (200°)16.1 mphRainLight Rain
1:20 PM50.0 °F46.4 °F87 %29.71 in5.0 miSSW (200°)11.5 mphOvercast
1:50 PM51.8 °F46.4 °F82 %29.71 in6.2 miSSW (200°)16.1 mphMostly Cloudy
2:00 PM51.0 °F46.0 °F78 %29.68 in6.0 miSouth (190°)10.4 mph
2:20 PM53.6 °F50.0 °F88 %29.74 in6.2 miSouth (180°)11.5 mphMostly Cloudy
2:50 PM55.4 °F50.0 °F82 %29.74 in6.2 miSSW (210°)15.0 mphMostly Cloudy
3:20 PM51.8 °F48.2 °F88 %29.74 in1.6 miWest (260°)17.3 mphRainRain
3:50 PM51.8 °F48.2 °F88 %29.74 in6.2 miSSW (200°)10.4 mphMostly Cloudy
4:20 PM53.6 °F50.0 °F88 %29.74 in6.2 miSSE (150°)9.2 mphScattered Clouds
4:50 PM53.6 °F50.0 °F88 %29.74 in6.2 miSouth (190°)11.5 mphMostly Cloudy
5:20 PM51.8 °F48.2 °F88 %29.74 in6.2 miSouth (190°)12.7 mphMostly Cloudy
5:50 PM51.8 °F48.2 °F88 %29.77 in6.2 miSouth (180°)11.5 mphMostly Cloudy
6:20 PM51.8 °F48.2 °F88 %29.77 in6.2 miSSE (160°)13.8 mphMostly Cloudy
6:50 PM51.8 °F46.4 °F82 %29.77 in6.2 miSouth (170°)9.2 mphMostly Cloudy
7:20 PM51.8 °F46.4 °F82 %29.80 in6.2 miSouth (180°)5.8 mphScattered Clouds
7:50 PM51.8 °F46.4 °F82 %29.80 in6.2 miSSE (160°)3.5 mphScattered Clouds
8:00 PM51.0 °F47.0 °F81 %29.78 in6.0 miSSE (160°)3.5 mph
8:20 PM51.8 °F48.2 °F88 %29.83 in6.2 miSouth (180°)4.6 mphScattered Clouds
8:50 PM53.6 °F48.2 °F82 %29.83 in6.2 miWest (270°)4.6 mphScattered Clouds
9:20 PM51.8 °F48.2 °F88 %29.83 in6.2 miEast (100°)3.5 mphScattered Clouds
9:50 PM50.0 °F46.4 °F87 %29.83 in6.2 miEast (100°)3.5 mphScattered Clouds
10:20 PM51.8 °F48.2 °F88 %29.86 in6.2 miSE (130°)5.8 mphMostly Cloudy
10:50 PM51.8 °F46.4 °F82 %29.86 in5.0 miSSE (160°)5.8 mphRainLight Rain
11:20 PM51.8 °F48.2 °F88 %29.86 in3.7 miSW (220°)12.7 mphOvercast
11:50 PM51.8 °F48.2 °F88 %29.86 in6.2 miSSW (200°)4.6 mphMostly Cloudy
Hourly data recorded from LLSD, located miles away from Kefar Monash, Israel







STORIES FROM OUR PARTNERS